C/2006 M1 ( LINEAR )

Japanese version
Home page
Updated on January 20, 2013

---------------------------------------------------------------------

* Profile

Discovery Date June 18, 2006
Magnitude 18.4 mag
Discoverer Lincoln Laboratory Near-Earth Asteroid Research project

* Pictures

* Orbital Elements

Epoch 2007 Mar. 1.0 TT = JDT 2454160.5
T 2007 Feb. 13.92645 TT                                 MPC
q   3.5562079            (2000.0)            P               Q
z  +0.0064776      Peri.  122.89490     +0.71590641     +0.27645388
 +/-0.0000011      Node   231.61533     -0.15781676     +0.95857789
e   0.9769645      Incl.   54.87691     +0.68012638     -0.06856880
From 564 observations 2006 June 18-2008 Feb. 26, mean residual 0".5.

* Finding Charts

* Magnitudes Graph

        m1 = 11.2 + 5 log d + 5.0 log r

---------------------------------------------------------------------

The orbital elements are published on M.P.E.C. 2013-A29.
The charts are made with StellaNavigator Ver.2.0 for Windows (AstroArts / ASCII).
The magnitudes graphs are made with Comet for Windows.

---------------------------------------------------------------------

Copyright(C) Seiichi Yoshida (comet@aerith.net). All rights reserved.